FW1786 Weather Reports


time (UTC)temp
C
wind
direction
speed
KPH
gust
KPH
rain 1hr
cm
rain 24hr
cm
rain mn
cm
humidity
%
barometer
mb
20260507070018 5 180 0.0 3.2 0.00 0.05 0.00 92 1018.8
20260507064519 5 184 1.6 3.2 0.00 0.05 0.00 92 1018.7
20260507063020 5 177 0.0 1.6 0.00 0.05 0.00 92 1018.8
20260507061523 5 177 0.0 3.2 0.00 0.05 0.00 92 1018.9
20260507060022 5 185 0.0 3.2 0.00 0.05 0.00 92 1018.9
20260507054521 5 186 0.0 3.2 0.00 0.05 0.00 92 1018.6
20260507053026 6 192 0.0 3.2 0.00 0.05 0.00 92 1018.4
20260507051520 6 179 0.0 3.2 0.00 0.05 0.00 92 1018.3
20260507050026 6 187 0.0 3.2 0.00 0.05 0.00 91 1018.3
20260507044505 6 179 0.0 3.2 0.00 0.05 0.05 91 1018.2
20260507043010 6 180 0.0 3.2 0.00 0.05 0.05 91 1018.1
20260507041504 6 166 0.0 1.6 0.00 0.05 0.05 91 1017.8
20260507040006 7 166 0.0 1.6 0.00 0.05 0.05 91 1017.9
20260507034503 7 165 0.0 1.6 0.00 0.05 0.05 91 1018.0
20260507033008 7 165 0.0 1.6 0.00 0.05 0.05 90 1017.8
20260507031504 7 150 0.0 1.6 0.00 0.05 0.05 90 1017.8
20260507030009 7 126 0.0 1.6 0.00 0.05 0.05 90 1017.6
20260507024513 8 126 0.0 1.6 0.00 0.05 0.05 89 1017.5
20260507023008 8 126 0.0 1.6 0.00 0.05 0.05 89 1017.2
20260507021503 8 126 0.0 1.6 0.00 0.05 0.05 88 1017.2
20260507020005 9 127 0.0 1.6 0.00 0.05 0.05 85 1017.1
20260507014510 10 119 0.0 1.6 0.00 0.15 0.05 84 1016.9
20260507013020 10 109 0.0 1.6 0.00 0.15 0.05 82 1016.5
20260507011516 11 109 0.0 3.2 0.00 0.15 0.05 79 1016.6
20260507010011 12 98 0.0 1.6 0.00 0.15 0.05 77 1016.4
20260507004510 12 98 0.0 1.6 0.00 0.15 0.05 76 1016.2
20260507003013 13 98 0.0 4.8 0.00 0.15 0.05 72 1016.1
20260507001544 14 41 0.0 3.2 0.00 0.15 0.05 64 1016.0
20260507000023 15 303 0.0 6.4 0.00 0.15 0.05 60 1016.0
20260506234516 15 136 1.6 3.2 0.00 0.15 0.05 58 1016.0
20260506233009 15 352 0.0 4.8 0.00 0.15 0.05 62 1015.9
20260506231509 15 110 1.6 4.8 0.00 0.15 0.05 60 1015.7
20260506230035 15 60 1.6 9.7 0.00 0.15 0.05 61 1015.2
20260506224523 15 345 0.0 12.9 0.00 0.15 0.05 59 1014.7
20260506223010 15 315 1.6 12.9 0.00 0.15 0.05 62 1014.6
20260506221513 14 304 0.0 8.0 0.00 0.15 0.05 62 1014.8
20260506220009 14 360 1.6 4.8 0.00 0.15 0.05 67 1015.3
20260506214512 14 65 1.6 6.4 0.00 0.15 0.05 63 1015.3
20260506213011 14 88 1.6 6.4 0.00 0.15 0.05 63 1015.4
20260506211512 14 360 1.6 4.8 0.00 0.15 0.05 66 1015.4
20260506210029 14 92 1.6 6.4 0.00 0.15 0.05 63 1015.6
20260506204513 13 238 1.6 6.4 0.00 0.15 0.05 64 1016.2
20260506203014 13 26 1.6 4.8 0.00 0.15 0.05 66 1016.4
20260506201520 14 211 3.2 9.7 0.00 0.18 0.05 65 1016.5
20260506200016 14 105 0.0 4.8 0.00 0.18 0.05 63 1017.0
20260506194506 13 5 1.6 4.8 0.00 0.18 0.05 64 1016.8
20260506193004 13 29 1.6 6.4 0.00 0.18 0.05 66 1017.0
20260506191507 13 77 1.6 9.7 0.00 0.20 0.05 65 1016.9
20260506190005 13 19 3.2 11.3 0.00 0.23 0.05 64 1017.0
20260506184505 12 236 1.6 12.9 0.00 0.28 0.05 66 1017.4
20260506183005 13 81 1.6 9.7 0.00 0.28 0.05 65 1017.6
20260506181504 12 294 1.6 11.3 0.00 0.30 0.05 66 1017.9
20260506180009 12 84 3.2 9.7 0.00 0.30 0.05 66 1018.2
20260506174507 12 9 0.0 9.7 0.00 0.30 0.05 70 1018.3
20260506173005 12 301 1.6 9.7 0.00 0.30 0.05 71 1018.4
20260506171505 12 295 1.6 9.7 0.00 0.30 0.05 71 1018.2
20260506170009 11 352 3.2 8.0 0.00 0.30 0.05 72 1017.9
20260506164524 10 281 1.6 6.4 0.00 0.30 0.05 76 1017.7
20260506163013 10 144 1.6 8.0 0.00 0.30 0.05 74 1017.8
20260506161507 10 39 3.2 12.9 0.00 0.30 0.05 76 1017.7
20260506160007 10 132 3.2 11.3 0.00 0.30 0.05 76 1017.1
20260506154511 10 5 3.2 9.7 0.00 0.30 0.05 78 1017.3
20260506153010 10 82 3.2 12.9 0.00 0.30 0.05 78 1017.6
20260506151515 10 301 3.2 9.7 0.00 0.30 0.05 77 1017.2
20260506150008 10 140 1.6 12.9 0.00 0.30 0.05 79 1017.4
20260506144521 10 252 1.6 14.5 0.00 0.30 0.05 81 1017.1
20260506143011 10 352 1.6 8.0 0.00 0.30 0.05 84 1016.8
20260506141524 9 31 1.6 8.0 0.00 0.30 0.05 84 1017.1
20260506140006 8 360 1.6 6.4 0.00 0.30 0.05 85 1017.0
20260506134510 8 329 1.6 6.4 0.00 0.30 0.05 85 1017.0
20260506133016 8 30 1.6 9.7 0.00 0.30 0.05 87 1016.7
20260506131513 8 52 1.6 6.4 0.00 0.33 0.05 88 1016.9
20260506130012 8 105 3.2 8.0 0.00 0.33 0.05 86 1016.7
20260506124508 8 352 1.6 6.4 0.00 0.33 0.05 88 1016.7
20260506123016 8 23 0.0 3.2 0.00 0.33 0.05 89 1016.4
20260506121516 7 15 0.0 4.8 0.00 0.33 0.05 89 1016.5
20260506120034 7 71 0.0 8.0 0.00 0.33 0.05 88 1016.4
20260506114519 7 12 0.0 6.4 0.00 0.33 0.05 89 1016.1
20260506113012 7 38 1.6 4.8 0.00 0.33 0.05 91 1015.8
20260506111512 7 44 0.0 4.8 0.00 0.33 0.05 91 1015.8
20260506110024 7 360 0.0 3.2 0.00 0.33 0.05 92 1015.4
20260506104505 7 9 0.0 3.2 0.00 0.33 0.05 92 1014.6
20260506103017 7 302 0.0 1.6 0.00 0.36 0.05 92 1014.5
20260506101506 7 337 0.0 3.2 0.00 0.41 0.05 91 1014.2
20260506100005 7 340 0.0 4.8 0.00 0.51 0.05 92 1013.8
20260506094505 7 343 0.0 3.2 0.00 0.56 0.05 92 1013.3
20260506093017 7 319 0.0 1.6 0.00 0.66 0.05 92 1013.8
20260506091508 7 352 0.0 3.2 0.00 0.74 0.05 93 1013.8
20260506090004 7 26 0.0 3.2 0.00 0.89 0.05 93 1013.5
20260506084504 7 345 0.0 3.2 0.00 0.97 0.05 93 1013.4
20260506083008 7 36 0.0 3.2 0.00 1.04 0.05 93 1013.0
20260506081512 7 317 0.0 3.2 0.03 1.12 0.05 93 1013.3
20260506073004 7 5 0.0 4.8 0.05 1.98 0.05 92 1012.7
20260506071505 7 61 1.6 6.4 0.03 1.98 0.03 92 1012.4